Location: Unspecified
(52.4292°N, 19.3359°E)
Time: 10:24:38
(UTC+02:00)

Tiros 1 - Pass Details

Date: 19 May 2024
Orbit: 624 x 657 km, 48.4° (Epoch: 22 June)

Event Time Altitude Azimuth Distance (km) Brightness Sun altitude
Rises 19:27:34 0° 276° (W) 2,979 12.4 8.7°
Reaches altitude 10° 19:30:32 10° 258° (WSW) 2,060 10.8 8.3°
Maximum altitude 19:33:45 18° 216° (SW) 1,578 9.4 7.8°
Drops below altitude 10° 19:36:55 10° 173° (S) 2,041 9.5 7.4°
Sets 19:39:51 0° 155° (SSE) 2,941 10.1 7.0°
